Time,TemperatureF,DewpointF,PressureIn,WindDirection,WindDirectionDegrees,WindSpeedMPH,WindSpeedGustMPH,Humidity,HourlyPrecipIn,Conditions,Clouds,dailyrainin,SoftwareType,DateUTC
2013-06-21 00:00:00,62.6,48.9,29.47,SSW,197,0.0,0.0,61,0.00,,,0.00,Weather View 32 v70,2013-06-21 04:00:00,
2013-06-21 00:10:00,62.8,49.1,29.47,SSW,197,0.0,0.0,61,0.00,,,0.00,Weather View 32 v70,2013-06-21 04:10:00,
2013-06-21 00:20:00,62.6,48.9,29.47,SSW,197,0.0,0.0,61,0.00,,,0.00,Weather View 32 v70,2013-06-21 04:20:00,
2013-06-21 00:30:00,62.6,48.9,29.50,SSW,197,0.0,0.0,61,0.00,,,0.00,Weather View 32 v70,2013-06-21 04:30:00,
2013-06-21 00:40:00,62.6,48.9,29.50,SSW,197,0.0,0.0,61,0.00,,,0.00,Weather View 32 v70,2013-06-21 04:40:00,
2013-06-21 00:50:00,62.2,49.0,29.50,SSW,197,0.0,0.0,62,0.00,,,0.00,Weather View 32 v70,2013-06-21 04:50:00,
2013-06-21 01:00:00,62.4,48.3,29.47,SSW,197,0.0,0.0,60,0.00,,,0.00,Weather View 32 v70,2013-06-21 05:00:00,
2013-06-21 01:10:00,62.2,48.1,29.50,SSW,197,0.0,0.0,60,0.00,,,0.00,Weather View 32 v70,2013-06-21 05:10:00,
2013-06-21 01:20:00,61.5,48.8,29.50,SSW,197,0.0,0.0,63,0.00,,,0.00,Weather View 32 v70,2013-06-21 05:20:00,
2013-06-21 01:30:00,61.3,48.2,29.47,SSW,197,0.0,0.0,62,0.00,,,0.00,Weather View 32 v70,2013-06-21 05:30:00,
2013-06-21 01:40:00,61.7,47.6,29.47,SSW,197,0.0,0.0,60,0.00,,,0.00,Weather View 32 v70,2013-06-21 05:40:00,
2013-06-21 01:50:00,61.7,47.2,29.47,SSW,197,0.0,0.0,59,0.00,,,0.00,Weather View 32 v70,2013-06-21 05:50:00,
2013-06-21 02:00:00,61.3,46.9,29.47,SSW,197,0.0,0.0,59,0.00,,,0.00,Weather View 32 v70,2013-06-21 06:00:00,
2013-06-21 02:10:00,61.2,47.6,29.47,SSW,197,0.0,0.0,61,0.00,,,0.00,Weather View 32 v70,2013-06-21 06:10:00,
2013-06-21 02:15:00,61.2,47.6,29.47,SSW,197,0.0,0.0,61,0.00,,,0.00,Weather View 32 v70,2013-06-21 06:15:00,
2013-06-21 02:30:00,60.4,47.8,29.47,SSW,197,0.0,0.0,63,0.00,,,0.00,Weather View 32 v70,2013-06-21 06:30:00,
2013-06-21 02:40:00,60.3,48.0,29.47,SSW,197,0.0,0.0,64,0.00,,,0.00,Weather View 32 v70,2013-06-21 06:40:00,
2013-06-21 02:50:00,59.7,48.3,29.47,SSW,197,0.0,0.0,66,0.00,,,0.00,Weather View 32 v70,2013-06-21 06:50:00,
2013-06-21 03:00:00,59.7,48.3,29.47,SSW,197,0.0,0.0,66,0.00,,,0.00,Weather View 32 v70,2013-06-21 07:00:00,
2013-06-21 03:10:00,59.4,48.4,29.47,SSW,197,0.0,0.0,67,0.00,,,0.00,Weather View 32 v70,2013-06-21 07:10:00,
2013-06-21 03:16:00,59.4,48.4,29.47,SSW,197,0.0,0.0,67,0.00,,,0.00,Weather View 32 v70,2013-06-21 07:16:00,
2013-06-21 03:30:00,58.8,49.0,29.47,SSW,197,0.0,0.0,70,0.00,,,0.00,Weather View 32 v70,2013-06-21 07:30:00,
2013-06-21 03:40:00,58.5,48.7,29.47,SSW,197,0.0,0.0,70,0.00,,,0.00,Weather View 32 v70,2013-06-21 07:40:00,
2013-06-21 03:50:00,58.3,49.3,29.47,SSW,197,0.0,0.0,72,0.00,,,0.00,Weather View 32 v70,2013-06-21 07:50:00,
2013-06-21 04:00:00,58.3,49.3,29.47,SSW,197,0.0,0.0,72,0.00,,,0.00,Weather View 32 v70,2013-06-21 08:00:00,
2013-06-21 04:10:00,58.3,49.3,29.47,SSW,197,0.0,0.0,72,0.00,,,0.00,Weather View 32 v70,2013-06-21 08:10:00,
2013-06-21 04:17:00,58.3,49.3,29.47,SSW,197,0.0,0.0,72,0.00,,,0.00,Weather View 32 v70,2013-06-21 08:17:00,
2013-06-21 04:30:00,57.9,49.7,29.47,SSW,197,0.0,0.0,74,0.00,,,0.00,Weather View 32 v70,2013-06-21 08:30:00,
2013-06-21 04:40:00,57.9,49.7,29.47,SSW,197,0.0,0.0,74,0.00,,,0.00,Weather View 32 v70,2013-06-21 08:40:00,
2013-06-21 04:50:00,57.9,49.7,29.47,SSW,197,0.0,0.0,74,0.00,,,0.00,Weather View 32 v70,2013-06-21 08:50:00,
2013-06-21 05:00:00,57.9,49.7,29.47,SSW,197,0.0,0.0,74,0.00,,,0.00,Weather View 32 v70,2013-06-21 09:00:00,
2013-06-21 05:10:00,57.9,49.3,29.47,SSW,197,0.0,0.0,73,0.00,,,0.00,Weather View 32 v70,2013-06-21 09:10:00,
2013-06-21 05:18:00,57.9,49.3,29.47,SSW,197,0.0,0.0,73,0.00,,,0.00,Weather View 32 v70,2013-06-21 09:18:00,
2013-06-21 05:30:00,57.7,49.1,29.47,SSW,197,0.0,0.0,73,0.00,,,0.00,Weather View 32 v70,2013-06-21 09:30:00,
2013-06-21 05:40:00,57.9,49.3,29.47,SSW,197,0.0,0.0,73,0.00,,,0.00,Weather View 32 v70,2013-06-21 09:40:00,
2013-06-21 05:50:00,57.9,49.3,29.47,SSW,197,0.0,0.0,73,0.00,,,0.00,Weather View 32 v70,2013-06-21 09:50:00,
2013-06-21 06:00:00,57.9,49.3,29.47,SSW,197,0.0,0.0,73,0.00,,,0.00,Weather View 32 v70,2013-06-21 10:00:00,
2013-06-21 06:10:00,57.9,49.3,29.47,SSW,197,0.0,0.0,73,0.00,,,0.00,Weather View 32 v70,2013-06-21 10:10:00,
2013-06-21 06:19:00,57.9,49.3,29.47,SSW,197,0.0,0.0,73,0.00,,,0.00,Weather View 32 v70,2013-06-21 10:19:00,
2013-06-21 06:30:00,58.1,49.1,29.47,SSW,197,0.0,0.0,72,0.00,,,0.00,Weather View 32 v70,2013-06-21 10:30:00,
2013-06-21 06:40:00,58.5,49.4,29.47,SSW,197,0.0,0.0,72,0.00,,,0.00,Weather View 32 v70,2013-06-21 10:40:00,
2013-06-21 06:50:00,59.0,49.6,29.47,SSW,197,0.0,0.0,71,0.00,,,0.00,Weather View 32 v70,2013-06-21 10:50:00,
2013-06-21 07:00:00,59.5,49.7,29.47,SSW,197,0.0,0.0,70,0.00,,,0.00,Weather View 32 v70,2013-06-21 11:00:00,
2013-06-21 07:10:00,60.3,50.0,29.47,SSW,197,0.0,0.0,69,0.00,,,0.00,Weather View 32 v70,2013-06-21 11:10:00,
2013-06-21 07:20:00,61.0,50.3,29.47,SSW,197,0.0,0.0,68,0.00,,,0.00,Weather View 32 v70,2013-06-21 11:20:00,
2013-06-21 07:30:00,61.9,50.8,29.44,SSW,197,0.0,0.0,67,0.00,,,0.00,Weather View 32 v70,2013-06-21 11:30:00,
2013-06-21 07:40:00,62.4,50.5,29.47,SSW,197,0.0,0.0,65,0.00,,,0.00,Weather View 32 v70,2013-06-21 11:40:00,
2013-06-21 07:50:00,63.0,51.0,29.47,SSW,197,0.0,0.0,65,0.00,,,0.00,Weather View 32 v70,2013-06-21 11:50:00,
2013-06-21 08:00:00,63.5,51.5,29.47,SSW,197,0.0,0.0,65,0.00,,,0.00,Weather View 32 v70,2013-06-21 12:00:00,
2013-06-21 08:10:00,64.2,51.3,29.47,SSW,197,0.0,0.0,63,0.00,,,0.00,Weather View 32 v70,2013-06-21 12:10:00,
2013-06-21 08:20:00,64.2,51.8,29.47,SSW,197,0.0,0.0,64,0.00,,,0.00,Weather View 32 v70,2013-06-21 12:20:00,
2013-06-21 08:30:00,64.2,52.2,29.50,SSW,197,0.0,0.0,65,0.00,,,0.00,Weather View 32 v70,2013-06-21 12:30:00,
2013-06-21 08:40:00,64.4,52.8,29.47,SSW,197,0.0,0.0,66,0.00,,,0.00,Weather View 32 v70,2013-06-21 12:40:00,
2013-06-21 08:50:00,64.8,53.1,29.47,SSW,197,0.0,0.0,66,0.00,,,0.00,Weather View 32 v70,2013-06-21 12:50:00,
2013-06-21 09:00:00,65.3,53.2,29.47,SSW,197,0.0,0.0,65,0.00,,,0.00,Weather View 32 v70,2013-06-21 13:00:00,
2013-06-21 09:10:00,66.6,53.1,29.47,South,172,0.0,0.0,62,0.00,,,0.00,Weather View 32 v70,2013-06-21 13:10:00,
2013-06-21 09:20:00,67.3,52.0,29.47,SE,130,0.0,4.0,58,0.00,,,0.00,Weather View 32 v70,2013-06-21 13:20:00,
2013-06-21 09:30:00,68.2,53.3,29.44,SSW,206,0.0,4.0,59,0.00,,,0.00,Weather View 32 v70,2013-06-21 13:30:00,
2013-06-21 09:40:00,69.4,53.0,29.44,SSW,192,0.0,4.0,56,0.00,,,0.00,Weather View 32 v70,2013-06-21 13:40:00,
2013-06-21 09:50:00,70.5,52.5,29.44,South,170,0.0,4.0,53,0.00,,,0.00,Weather View 32 v70,2013-06-21 13:50:00,
2013-06-21 10:00:00,70.2,53.2,29.44,South,190,0.0,4.0,55,0.00,,,0.00,Weather View 32 v70,2013-06-21 14:00:00,
2013-06-21 10:10:00,70.3,53.9,29.47,South,190,0.0,4.0,56,0.00,,,0.00,Weather View 32 v70,2013-06-21 14:10:00,
2013-06-21 10:20:00,70.9,54.8,29.47,South,190,0.0,3.0,57,0.00,,,0.00,Weather View 32 v70,2013-06-21 14:20:00,
2013-06-21 10:30:00,71.8,53.7,29.47,South,190,0.0,3.0,53,0.00,,,0.00,Weather View 32 v70,2013-06-21 14:30:00,
2013-06-21 10:40:00,74.7,53.0,29.47,SSW,193,0.0,3.0,47,0.00,,,0.00,Weather View 32 v70,2013-06-21 14:40:00,
2013-06-21 10:50:00,76.5,50.9,29.47,SSW,193,0.0,3.0,41,0.00,,,0.00,Weather View 32 v70,2013-06-21 14:50:00,
2013-06-21 11:00:00,77.9,52.2,29.47,South,173,0.0,3.0,41,0.00,,,0.00,Weather View 32 v70,2013-06-21 15:00:00,
2013-06-21 11:20:00,78.4,50.6,29.47,SSW,201,2.0,4.0,38,0.00,,,0.00,Weather View 32 v70,2013-06-21 15:20:00,
2013-06-21 11:30:00,79.0,51.8,29.47,SSW,201,0.0,4.0,39,0.00,,,0.00,Weather View 32 v70,2013-06-21 15:30:00,
2013-06-21 11:50:00,80.6,49.5,29.47,SSW,202,0.0,4.0,34,0.00,,,0.00,Weather View 32 v70,2013-06-21 15:50:00,
2013-06-21 12:00:00,81.7,49.7,29.47,South,187,0.0,4.0,33,0.00,,,0.00,Weather View 32 v70,2013-06-21 16:00:00,
2013-06-21 12:10:00,81.9,47.3,29.47,South,180,0.0,4.0,30,0.00,,,0.00,Weather View 32 v70,2013-06-21 16:10:00,
2013-06-21 12:20:00,83.1,50.1,29.47,North,350,0.0,4.0,32,0.00,,,0.00,Weather View 32 v70,2013-06-21 16:20:00,
2013-06-21 12:30:00,83.8,49.9,29.44,West,265,4.0,4.0,31,0.00,,,0.00,Weather View 32 v70,2013-06-21 16:30:00,
2013-06-21 12:50:00,84.2,49.3,29.44,SSW,210,0.0,4.0,30,0.00,,,0.00,Weather View 32 v70,2013-06-21 16:50:00,
2013-06-21 13:00:00,84.4,48.5,29.44,WSW,252,4.0,4.0,29,0.00,,,0.00,Weather View 32 v70,2013-06-21 17:00:00,
2013-06-21 13:10:00,84.2,49.3,29.44,SSW,198,0.0,4.0,30,0.00,,,0.00,Weather View 32 v70,2013-06-21 17:10:00,
2013-06-21 13:20:00,84.0,49.1,29.44,SSW,200,3.0,4.0,30,0.00,,,0.00,Weather View 32 v70,2013-06-21 17:20:00,
2013-06-21 13:25:00,84.0,49.1,29.44,SSW,200,3.0,4.0,30,0.00,,,0.00,Weather View 32 v70,2013-06-21 17:25:00,
2013-06-21 13:51:00,83.7,48.8,29.44,SSW,210,2.0,4.0,30,0.00,,,0.00,Weather View 32 v70,2013-06-21 17:51:00,
2013-06-21 14:00:00,83.8,49.0,29.44,SSW,211,4.0,5.0,30,0.00,,,0.00,Weather View 32 v70,2013-06-21 18:00:00,
2013-06-21 14:10:00,83.1,50.1,29.44,South,186,0.0,6.0,32,0.00,,,0.00,Weather View 32 v70,2013-06-21 18:10:00,
2013-06-21 14:20:00,83.1,49.3,29.44,SSW,206,3.0,6.0,31,0.00,,,0.00,Weather View 32 v70,2013-06-21 18:20:00,
2013-06-21 14:26:00,83.1,49.3,29.44,SSW,206,3.0,6.0,31,0.00,,,0.00,Weather View 32 v70,2013-06-21 18:26:00,
2013-06-21 14:30:00,82.8,48.1,29.41,SSW,204,3.0,6.0,30,0.00,,,0.00,Weather View 32 v70,2013-06-21 18:30:00,
2013-06-21 14:40:00,82.9,48.2,29.41,SSW,206,0.0,6.0,30,0.00,,,0.00,Weather View 32 v70,2013-06-21 18:40:00,
2013-06-21 15:00:00,82.4,46.9,29.41,SSW,206,2.0,6.0,29,0.00,,,0.00,Weather View 32 v70,2013-06-21 19:00:00,
2013-06-21 15:10:00,82.8,47.2,29.41,South,191,3.0,4.0,29,0.00,,,0.00,Weather View 32 v70,2013-06-21 19:10:00,
2013-06-21 15:20:00,82.6,47.9,29.41,SSW,199,3.0,5.0,30,0.00,,,0.00,Weather View 32 v70,2013-06-21 19:20:00,
2013-06-21 15:27:00,82.6,47.9,29.41,SSW,199,3.0,5.0,30,0.00,,,0.00,Weather View 32 v70,2013-06-21 19:27:00,
2013-06-21 15:40:00,82.0,46.5,29.41,SSW,208,3.0,5.0,29,0.00,,,0.00,Weather View 32 v70,2013-06-21 19:40:00,
2013-06-21 15:50:00,82.0,47.4,29.41,SSW,205,0.0,5.0,30,0.00,,,0.00,Weather View 32 v70,2013-06-21 19:50:00,
2013-06-21 16:00:00,81.7,47.1,29.41,SW,216,0.0,5.0,30,0.00,,,0.00,Weather View 32 v70,2013-06-21 20:00:00,
2013-06-21 16:10:00,81.5,46.1,29.41,SSW,197,3.0,5.0,29,0.00,,,0.00,Weather View 32 v70,2013-06-21 20:10:00,
2013-06-21 16:20:00,81.3,47.7,29.41,SSW,198,0.0,5.0,31,0.00,,,0.00,Weather View 32 v70,2013-06-21 20:20:00,
2013-06-21 16:28:00,81.3,47.7,29.41,SSW,198,0.0,5.0,31,0.00,,,0.00,Weather View 32 v70,2013-06-21 20:28:00,
2013-06-21 16:40:00,81.1,47.5,29.38,South,189,0.0,5.0,31,0.00,,,0.00,Weather View 32 v70,2013-06-21 20:40:00,
2013-06-21 16:50:00,81.1,47.5,29.38,SSW,195,3.0,5.0,31,0.00,,,0.00,Weather View 32 v70,2013-06-21 20:50:00,
2013-06-21 17:00:00,81.0,48.2,29.35,SSW,195,2.0,5.0,32,0.00,,,0.00,Weather View 32 v70,2013-06-21 21:00:00,
2013-06-21 17:10:00,80.8,47.2,29.35,SSW,192,3.0,4.0,31,0.00,,,0.00,Weather View 32 v70,2013-06-21 21:10:00,
2013-06-21 17:20:00,80.2,46.8,29.35,SSW,195,3.0,4.0,31,0.00,,,0.00,Weather View 32 v70,2013-06-21 21:20:00,
2013-06-21 17:29:00,80.2,46.8,29.35,SSW,195,3.0,4.0,31,0.00,,,0.00,Weather View 32 v70,2013-06-21 21:29:00,
2013-06-21 17:40:00,79.9,48.1,29.35,South,191,3.0,4.0,33,0.00,,,0.00,Weather View 32 v70,2013-06-21 21:40:00,
2013-06-21 17:50:00,79.9,48.1,29.35,SSW,192,2.0,4.0,33,0.00,,,0.00,Weather View 32 v70,2013-06-21 21:50:00,
2013-06-21 18:00:00,79.9,47.3,29.32,South,188,3.0,4.0,32,0.00,,,0.00,Weather View 32 v70,2013-06-21 22:00:00,
2013-06-21 18:10:00,80.4,46.9,29.32,SSW,195,3.0,4.0,31,0.00,,,0.00,Weather View 32 v70,2013-06-21 22:10:00,
2013-06-21 18:20:00,80.4,46.0,29.32,SSW,192,3.0,5.0,30,0.00,,,0.00,Weather View 32 v70,2013-06-21 22:20:00,
2013-06-21 18:30:00,80.4,46.0,29.32,SSW,201,4.0,5.0,30,0.00,,,0.00,Weather View 32 v70,2013-06-21 22:30:00,
2013-06-21 18:40:00,80.1,46.6,29.32,SSW,205,3.0,5.0,31,0.00,,,0.00,Weather View 32 v70,2013-06-21 22:40:00,
2013-06-21 18:49:00,80.1,46.6,29.32,SSW,193,3.0,5.0,31,0.00,,,0.00,Weather View 32 v70,2013-06-21 22:49:00,
2013-06-21 19:00:00,79.9,45.6,29.32,SSW,210,4.0,5.0,30,0.00,,,0.00,Weather View 32 v70,2013-06-21 23:00:00,
2013-06-21 19:10:00,79.5,46.1,29.32,SSW,197,4.0,5.0,31,0.00,,,0.00,Weather View 32 v70,2013-06-21 23:10:00,
2013-06-21 19:20:00,79.0,45.7,29.32,SSW,196,3.0,5.0,31,0.00,,,0.00,Weather View 32 v70,2013-06-21 23:20:00,
2013-06-21 19:31:00,78.8,45.5,29.32,South,191,4.0,5.0,31,0.00,,,0.00,Weather View 32 v70,2013-06-21 23:31:00,
2013-06-21 19:40:00,78.6,45.4,29.32,South,191,3.0,5.0,31,0.00,,,0.00,Weather View 32 v70,2013-06-21 23:40:00,
2013-06-21 19:50:00,78.4,45.2,29.32,SSW,204,3.0,5.0,31,0.00,,,0.00,Weather View 32 v70,2013-06-21 23:50:00,
2013-06-21 20:00:00,78.4,45.2,29.32,SSW,205,2.0,5.0,31,0.00,,,0.00,Weather View 32 v70,2013-06-22 00:00:00,
2013-06-21 20:10:00,78.6,45.4,29.32,SSW,194,2.0,5.0,31,0.00,,,0.00,Weather View 32 v70,2013-06-22 00:10:00,
2013-06-21 20:20:00,78.4,44.3,29.32,SSW,200,3.0,5.0,30,0.00,,,0.00,Weather View 32 v70,2013-06-22 00:20:00,
2013-06-21 20:30:00,77.7,44.6,29.32,SSW,201,3.0,5.0,31,0.00,,,0.00,Weather View 32 v70,2013-06-22 00:30:00,
2013-06-21 20:40:00,77.2,44.1,29.32,SSW,202,2.0,5.0,31,0.00,,,0.00,Weather View 32 v70,2013-06-22 00:40:00,
2013-06-21 20:50:00,76.5,43.5,29.32,SSW,200,3.0,5.0,31,0.00,,,0.00,Weather View 32 v70,2013-06-22 00:50:00,
2013-06-21 20:59:00,76.1,44.0,29.32,SSW,200,2.0,5.0,32,0.00,,,0.00,Weather View 32 v70,2013-06-22 00:59:00,
2013-06-21 21:10:00,75.4,43.4,29.32,SSW,200,2.0,4.0,32,0.00,,,0.00,Weather View 32 v70,2013-06-22 01:10:00,
2013-06-21 21:20:00,74.8,43.7,29.32,SSW,200,0.0,4.0,33,0.00,,,0.00,Weather View 32 v70,2013-06-22 01:20:00,
2013-06-21 21:30:00,74.5,43.4,29.32,SSW,200,0.0,4.0,33,0.00,,,0.00,Weather View 32 v70,2013-06-22 01:30:00,
2013-06-21 21:40:00,74.1,43.9,29.32,SSW,200,0.0,3.0,34,0.00,,,0.00,Weather View 32 v70,2013-06-22 01:40:00,
2013-06-21 21:50:00,73.8,43.6,29.32,SSW,200,0.0,3.0,34,0.00,,,0.00,Weather View 32 v70,2013-06-22 01:50:00,
2013-06-21 22:00:00,73.2,43.8,29.32,SSW,200,0.0,3.0,35,0.00,,,0.00,Weather View 32 v70,2013-06-22 02:00:00,
2013-06-21 22:10:00,72.7,44.1,29.32,SSW,200,0.0,2.0,36,0.00,,,0.00,Weather View 32 v70,2013-06-22 02:10:00,
2013-06-21 22:20:00,72.1,45.1,29.32,SSW,200,0.0,0.0,38,0.00,,,0.00,Weather View 32 v70,2013-06-22 02:20:00,
2013-06-21 22:30:00,71.4,46.4,29.35,SSW,200,0.0,0.0,41,0.00,,,0.00,Weather View 32 v70,2013-06-22 02:30:00,
2013-06-21 22:40:00,70.5,46.3,29.35,SSW,200,0.0,0.0,42,0.00,,,0.00,Weather View 32 v70,2013-06-22 02:40:00,
2013-06-21 22:50:00,69.8,46.2,29.35,SSW,200,0.0,0.0,43,0.00,,,0.00,Weather View 32 v70,2013-06-22 02:50:00,
2013-06-21 23:00:00,69.1,47.9,29.35,SSW,200,0.0,0.0,47,0.00,,,0.00,Weather View 32 v70,2013-06-22 03:00:00,
2013-06-21 23:10:00,68.4,48.4,29.35,SSW,200,0.0,0.0,49,0.00,,,0.00,Weather View 32 v70,2013-06-22 03:10:00,
2013-06-21 23:20:00,68.0,48.1,29.35,SSW,200,0.0,0.0,49,0.00,,,0.00,Weather View 32 v70,2013-06-22 03:20:00,
2013-06-21 23:30:00,67.5,49.2,29.35,SSW,200,0.0,0.0,52,0.00,,,0.00,Weather View 32 v70,2013-06-22 03:30:00,
2013-06-21 23:40:00,67.3,48.5,29.35,SSW,200,0.0,0.0,51,0.00,,,0.00,Weather View 32 v70,2013-06-22 03:40:00,
2013-06-21 23:50:00,67.5,48.1,29.35,SSW,200,0.0,0.0,50,0.00,,,0.00,Weather View 32 v70,2013-06-22 03:50:00,